Location: Black River Observatory
(43.1000°N, 82.6200°W)
Time: 06:21:20
(UTC-04:00)

Daily predictions for brighter satellites

Satellite Brightness Start Highest point End
(mag) Time Altitude Azimuth Time Altitude Azimuth Time Altitude Azimuth
Cosmos 1025 Rocket 3.5 21:27:32 10° SSE 21:31:32 41° E 21:35:33 10° NNE
SPOT 5 4.4 21:29:14 10° ESE 21:32:12 18° ENE 21:35:12 10° NNE
Cosmos 1697 Rocket 4.3 21:28:11 10° N 21:32:23 21° NE 21:36:34 10° E
CZ-4B DEB 2.7 21:30:03 10° SSE 21:33:00 60° ENE 21:35:58 10° N
SAR-Lupe-1 4.2 21:29:33 10° SSE 21:33:04 57° ENE 21:36:37 10° N
Cosmos 405 3.0 21:33:30 10° N 21:37:03 64° E 21:40:33 10° SSE
Cosmos 2369 4.4 21:32:22 10° NNW 21:37:46 40° ENE 21:43:07 10° SE
Cosmos 1666 2.9 21:36:19 10° NNW 21:40:04 73° W 21:43:47 10° S
USA 186 3.5 21:38:29 10° SSW 21:41:19 30° W 21:44:05 10° NNW
CENTAUR R/B 4.1 21:33:56 10° NW 21:41:25 45° WSW 21:49:17 10° S
COSMOS 2487 3.9 21:38:58 10° SSE 21:41:37 20° E 21:44:17 10° NE
Meteor 2-9 Rocket 4.2 21:39:07 10° N 21:44:40 87° ENE 21:50:20 10° S
ERS-1 Rocket 3.3 21:42:07 10° SE 21:46:58 52° ENE 21:51:51 10° N
SJ-11-01 4.4 21:42:59 10° S 21:47:39 79° WSW 21:52:25 10° NNW
Cosmos 1371 Rocket 4.0 21:42:58 10° NNW 21:48:20 82° ENE 21:53:36 10° SSE
Cosmos 1833 Rocket 3.7 21:44:55 10° SSE 21:49:22 25° ESE 21:53:50 10° NE
OAO 2 Rocket 4.4 21:46:30 10° WSW 21:50:42 28° S 21:54:39 11° SE
ISS -2.4 21:47:49 10° W 21:50:59 42° NNW 21:54:09 10° NE
Cosmos 1238 Rocket 4.1 21:44:35 10° S 21:51:21 83° E 21:57:40 10° N
CRYOSAT 2 4.4 21:47:16 10° SSE 21:52:03 65° E 21:56:52 10° N
Cosmos 2058 Rocket 4.0 21:50:57 10° N 21:54:57 32° ENE 21:58:31 12° SE
Aureole 3 Rocket 4.2 21:54:19 10° SSW 21:59:59 54° W 22:04:05 10° N
Meteor 1-29 3.4 21:58:16 10° N 22:01:37 63° WNW 22:04:56 10° SSW
Cosmos 1437 Rocket 2.7 22:01:38 10° N 22:05:30 83° E 22:09:19 11° SSE
Cosmos 2181 Rocket 4.3 21:59:40 10° SSE 22:05:44 49° E 22:11:44 10° NNE
ASTEX 1 3.5 22:02:04 10° S 22:06:59 84° W 22:11:54 10° N
Cosmos 1939 Rocket 3.9 22:03:27 10° S 22:07:08 42° W 22:10:51 10° NNW
Intercosmos 24 3.7 22:03:55 10° N 22:07:40 83° W 22:11:14 10° S
Meteor 2-4 Rocket 4.4 22:02:30 10° SSW 22:08:08 62° WNW 22:13:56 10° N
Cosmos 1515 3.7 22:09:37 10° S 22:13:21 60° E 22:17:08 10° NNE
H-2A R/B 4.1 22:11:41 10° E 22:14:27 16° ENE 22:17:12 10° NNE
Resurs 01 Rocket 4.4 22:13:20 10° WSW 22:15:34 14° W 22:17:50 10° WNW
Meteor 2-19 Rocket 4.4 22:14:28 10° N 22:20:38 85° E 22:26:34 11° S
Cosmos 1980 Rocket 3.4 22:16:54 10° N 22:21:49 29° NE 22:25:49 14° ESE
Cosmos 962 Rocket 4.5 22:16:13 10° N 22:22:29 84° E 22:28:18 12° S
ARGOS 3.2 22:20:51 15° SSE 22:25:16 68° ENE 22:30:40 10° N
TELKOM 3 3.2 22:30:25 10° WNW 22:32:44 75° SSW 22:33:54 32° SE
Cosmos 2228 3.0 22:28:48 10° N 22:33:05 69° E 22:35:49 21° SSE
Cosmos 2322 Rocket 4.3 22:29:46 10° N 22:33:08 16° NE 22:36:28 10° E
Cosmos 921 Rocket 3.3 22:29:20 10° NNW 22:33:47 70° WSW 22:37:02 18° S
Tiangong 2 1.0 22:34:27 10° W 22:37:39 85° S 22:39:22 25° E
SL-8 Rocket 4.0 22:33:18 10° N 22:39:34 71° E 22:44:11 19° SSE
MetOp-B 4.3 22:36:14 14° S 22:40:47 72° WSW 22:46:09 10° NNW
NOAA 11 4.5 22:35:58 13° S 22:40:50 66° WSW 22:46:15 10° NNW
H-2A R/B 2.2 22:38:01 22° SE 22:41:07 58° ENE 22:46:06 10° N
Cosmos 1766 4.5 22:37:58 10° NNE 22:41:21 27° ENE 22:42:36 23° ESE
Landsat 7 4.4 22:40:01 23° SE 22:42:36 44° ENE 22:47:07 10° N
Cosmos 2366 rocket 4.1 22:40:23 10° N 22:46:29 59° E 22:50:17 23° SSE
CZ-3A R/B 0.6 22:48:20 10° WSW 22:51:07 47° NW 22:51:30 36° N
Cosmos 1892 Rocket 4.4 22:49:56 10° SSW 22:54:14 49° WNW 22:58:31 10° N
Lacrosse 5 rocket 3.7 22:51:21 10° NNW 22:54:58 22° NNE 22:58:35 10° ENE
Meteor 1-4 Rocket 2.4 22:53:27 10° N 22:57:03 85° E 22:58:16 39° SSE
Terra 2.4 22:55:30 27° SE 22:57:38 43° ENE 23:02:08 10° N
Cosmos 1602 Rocket 3.6 22:57:24 30° SSE 22:59:21 61° E 23:03:37 10° NNE
Cosmos 2082 Rocket 2.2 22:54:17 10° SSW 22:59:58 82° WNW 23:05:39 10° NNE
Cosmos 2278 4.5 22:55:55 10° NW 23:01:20 46° WSW 23:05:10 19° S
Cosmos 1269 Rocket 4.2 23:01:07 27° SSE 23:03:46 51° ESE 23:08:54 10° NNE
Cosmos 1420 Rocket 3.9 23:01:11 10° NNW 23:06:28 84° ENE 23:08:59 32° SSE
DMSP B5D2-2 4.1 23:03:57 10° NNE 23:09:13 64° ESE 23:11:58 28° S
SPOT 5 3.5 23:07:20 20° SSW 23:09:57 43° W 23:14:09 10° NNW
Cosmos 1805 4.2 23:06:34 10° NNE 23:10:05 31° ENE 23:10:42 29° E
Cosmos 1048 Rocket 4.0 23:08:12 27° S 23:10:52 61° ESE 23:15:59 10° NNE
Meteor 2-14 Rocket 4.4 23:06:34 10° N 23:12:38 73° E 23:15:45 30° SSE
deb Chang Zheng 4 4.0 23:09:35 10° NNE 23:13:42 42° E 23:14:27 38° SE
Cosmos 1656 4.2 23:10:15 10° NW 23:15:29 48° WSW 23:18:29 24° S
Meteor 1-22 Rocket 4.1 23:11:19 10° N 23:16:40 87° W 23:19:21 31° S
Cosmos 1697 Rocket 2.8 23:11:18 10° NNW 23:16:53 68° WSW 23:19:38 31° S
Cosmos 1758 4.4 23:13:59 10° NNE 23:17:32 30° ENE 23:18:04 29° E
Cosmos 389 Rocket 4.0 23:15:38 10° NNE 23:18:28 23° ENE 23:18:31 23° ENE
Cosmos 1452 Rocket 4.2 23:17:14 10° NNW 23:22:16 47° WSW 23:25:00 25° SSW
Lacrosse 5 3.3 23:25:30 21° E 23:25:30 21° E 23:27:52 10° ENE
USA 267 4.5 23:19:16 10° ENE 23:22:58 21° ESE 23:22:58 21° ESE
CARTOSAT-1 3.5 23:24:03 45° SSE 23:25:20 83° ENE 23:29:40 10° N
Cosmos 2360 4.2 23:19:58 10° NNW 23:25:42 73° ENE 23:28:04 36° SE
Timation 2 Rocket 3.9 23:20:21 10° SSW 23:26:45 88° WNW 23:32:55 10° NNE
SL-16 R/B 3.3 23:21:45 10° N 23:26:54 34° NE 23:29:33 23° ESE
Iridium 2 3.7 23:23:31 10° N 23:27:17 61° E 23:27:42 56° ESE
ISS -0.9 23:25:39 10° NW 23:28:06 19° N 23:30:33 10° NE
Cosmos 2218 Rocket 4.4 23:23:48 10° NNW 23:29:50 58° W 23:33:41 23° SSW
Cosmos 1833 Rocket 3.5 23:27:30 10° SW 23:32:56 49° WNW 23:38:25 10° NNE
SPOT 1/Viking Rocket 4.4 23:30:09 23° SSW 23:32:59 42° W 23:37:52 10° NNW
IGS 5A 3.4 23:32:35 52° S 23:33:34 86° W 23:37:45 10° NNW
Meteor 2-16 Rocket 4.4 23:29:08 10° N 23:35:19 86° W 23:38:09 34° S
ATLAS CENTAUR R/B 2.5 23:34:31 10° NNW 23:37:46 28° NE 23:38:30 26° ENE
SL-19 R/B 4.0 23:32:45 10° NNE 23:38:05 80° ESE 23:40:12 37° S
SL-24 R/B - RUBIN 2 4.5 23:33:05 14° SSW 23:39:01 79° ESE 23:45:33 10° NE
Cosmos 1842 3.1 23:38:51 64° S 23:39:26 89° E 23:43:23 10° N
Cosmos 1271 Rocket 2.7 23:36:06 10° NNW 23:40:02 79° W 23:40:35 63° SSW
CZ-4C R/B 3.6 23:45:30 46° ENE 23:45:30 46° ENE 23:48:59 10° N
Cosmos 1758 Rocket 3.8 23:47:43 47° E 23:47:52 48° E 23:52:04 10° NNE
Cosmos 2251 Rocket 4.1 23:47:57 38° ESE 23:48:24 38° ESE 23:53:22 10° NE
Cosmos 1733 4.3 23:45:19 10° NNE 23:48:41 31° ENE 23:48:41 31° ENE
Cosmos 1544 3.0 23:45:51 10° NNW 23:49:29 72° W 23:49:33 72° WSW
H-2A R/B 2.5 23:48:48 43° SSW 23:49:58 58° WSW 23:54:27 10° NNW
Cosmos 1812 Rocket 4.3 23:47:55 10° NNW 23:52:12 46° W 23:53:29 35° SW
